www.pogodaiklimat.ru
ПОГОДА на Carlini Base
Время
(UTC), дата
00 9.12
03 9.12
06 9.12
09 9.12
12 9.12
15 9.12
18 9.12
21 9.12
00 10.12
03 10.12
06 10.12
09 10.12
12 10.12
15 10.12
18 10.12
21 10.12
00 11.12
03 11.12
06 11.12
09 11.12
12 11.12
15 11.12
18 11.12
21 11.12
00 12.12
03 12.12
06 12.12
09 12.12
12 12.12
15 12.12
18 12.12
21 12.12
00 13.12
03 13.12
06 13.12
09 13.12
12 13.12
15 13.12
18 13.12
21 13.12
00 14.12
03 14.12
06 14.12
09 14.12
12 14.12
15 14.12
18 14.12
21 14.12
00 15.12
03 15.12
06 15.12
09 15.12
12 15.12
15 15.12
18 15.12
21 15.12
Ветер
(напр.,м/с)
Видим. Явления Облачность Т
(С)
Тd
(С)
f
(%)
Тe
(С)
Тes
(С)
Комфортность P
(гПа)
Po
(гПа)
Тmin
(С)
Tmax
(С)
R
(мм)
R24
(мм)
S
(см)
Ю 3 12 км 9/3 300 м
[St Ac As]
+0.8 -1.8 83 -4 -4 999.5 998.1 -0.1 +2.2
ЮВ 5 8000 м слаб. снег 10/4 150 м
[Frnb Ac As]
-0.4 -0.7 98 -7 -7 999.4 998.0
В 9 12 км в посл. час снег 10/4 300 м
[St Ac As]
-0.6 -4.0 78 -8 -8 999.0 997.6 0.0
ЮВ 8 12 км 9/9 240 м
[St]
-0.8 -3.3 83 -9 -9 999.0 997.6
В 9 12 км 10/5 300 м
[Frnb As op]
-0.5 -4.5 74 -8 -8 998.0 996.6 -0.9 +0.9 0.0
В 10 12 км 10/6 360 м
[St As op]
-0.2 -4.8 71 -8 -8 997.4 996.0
В 11 12 км 10/6 480 м
[St As op]
-0.2 -4.1 75 -9 -9 997.2 995.8
В 12 12 км 9/6 360 м
[St Ac As]
+0.4 -3.6 74 -8 -8 997.2 995.8
В 11 12 км 8/4 240 м
[St Ac trans]
-0.5 -3.9 78 -9 -9 997.1 995.7 -0.6 +0.5
В 12 12 км 10/10 240 м
[St]
-1.6 -4.6 80 -11 -11 997.3 995.8
В 9 12 км 10/10 240 м
[St]
-1.9 -5.3 78 -10 -10 997.0 995.6
В 12 12 км 10/10 240 м
[St]
-2.0 -5.5 77 -11 -11 997.6 996.2
В 11 12 км 10/10 300 м
[St]
-2.2 -6.5 72 -11 -11 998.4 997.0 -2.2 -0.4
В 12 12 км 10/10 360 м
[St]
-1.5 -5.9 72 -10 -10 999.0 997.6
В 12 12 км 9/6 450 м
[St Ac As]
-1.1 -6.1 69 -10 -10 999.7 998.2
В 11 12 км 9/5 450 м
[St Ac As]
-1.4 -5.7 72 -10 -10 1000.5 999.0
В 10 12 км 9/5 300 м
[St Ac und]
-2.2 -5.4 79 -11 -11 1001.3 999.8 -2.4 -0.5
В 8 12 км 10/5 300 м
[St Ac As]
-2.7 -6.7 74 -11 -11 1001.8 1000.4
В 9 12 км 9/5 300 м
[Sc diur, vesp Ac und]
-2.8 -6.9 73 -11 -11 1001.9 1000.5
В 8 12 км 9/4 300 м
[St Ac As]
-2.5 -6.9 72 -10 -10 1002.6 1001.2
В 7 9000 м слаб. морось 10/10 240 м
[Frnb]
-2.0 -6.6 71 -9 -9 1002.9 1001.4 -3.0 -2.0 0.0
В 7 12 км 10/10 360 м
[St]
-1.6 -6.4 70 -9 -9 1002.8 1001.4
В 5 12 км 10/10 360 м
[St]
-0.8 -6.0 68 -7 -7 1003.0 1001.6 0.0
В 4 10 км слаб. снег 10/8 360 м
[Frnb As trans]
-1.0 -5.2 73 -7 -6 1003.5 1002.1
В 1 10 км слаб. снег 10/10 240 м
[Frnb]
-1.4 -5.4 74 -3 -3 1003.5 1002.1 -2.2 -0.6 0.0
С 1 8000 м слаб. снег 10/10 210 м
[Frnb]
-1.9 -4.7 81 -4 -4 1003.4 1002.0
нст 1 5000 м слаб. снег 10/4 210 м
[Frnb As op]
-2.6 -4.2 89 -3 -3 1003.0 1001.6 4
В 1 8000 м слаб. снег 10/6 210 м
[Frnb As op]
-1.8 -4.5 82 -4 -4 1002.6 1001.2
штиль 0 6000 м слаб. дождь туман 10/6 300 м
[Frnb As op]
-1.6 -3.3 88 -3 -2 1002.5 1001.0 -2.6 -1.0 2 2
штиль 0 6000 м слаб. снег {дождь} туман 10/8 360 м
[Frnb As op]
-0.2 -3.2 80 -1 -1 1002.5 1001.0
З 3 8000 м слаб. снег туман 10/8 360 м
[Frnb As op]
-0.2 -3.5 78 -4 -4 1002.5 1001.0 0.5
СЗ 3 6000 м слаб. снег туман 10/6 360 м
[Frnb As op]
-0.1 -3.7 77 -5 -4 1002.5 1001.0
СЗ 3 12 км в посл. час снег 10/4 300 м
[St Ac As]
-0.4 -4.1 76 -5 -4 1002.5 1001.0 -1.6 +0.6 0.3
СЗ 3 12 км 10/5 300 м
[St Ac As]
-0.6 -3.7 80 -5 -5 1002.5 1001.0
СЗ 4 8000 м дымка 10/6 300 м
[St Ac As]
-0.8 -3.3 83 -6 -6 1001.5 1000.1
СЗ 3 12 км 10/5 210 м
[St Ac As]
-0.6 -3.0 84 -5 -5 1001.4 1000.0
З 2 9000 м слаб. снег туман 10/5 360 м
[Frnb As op]
-0.1 -3.7 77 -3 -2 1001.2 999.8 -1.0 0.0 0.0 0
З 3 9000 м слаб. снег туман 10/10 300 м
[Frnb]
+0.6 -1.8 84 -4 -4 1000.8 999.4
Ю 3 8000 м слаб. снег туман 10/6 240 м
[Frnb As op]
+0.5 -4.2 71 -3 -3 1000.7 999.3 0.0
С 3 12 км в посл. час снег 10/6 360 м
[Frnb As op]
+0.8 -2.8 77 -3 -3 1000.6 999.2
СВ 2 12 км {снег} 10/5 300 м
[St Ac As]
-0.1 -3.3 79 -4 -4 1000.4 999.0 -0.2 +1.3 0.0
ЮВ 1 12 км 9/4 300 м
[St Ac As]
-0.7 -3.8 80 -3 -3 1000.4 999.0
В 2 12 км 4/4 300 м
[St]
-1.2 -4.4 79 -5 -5 1000.3 998.9
В 2 12 км 1/1 300 м
[St]
-1.2 -4.4 79 -5 -4 1000.4 999.0
З 2 12 км 1/1 480 м
[St]
+0.6 -2.4 80 -3 +4 1000.4 999.0 -1.3 +0.7 0.0
З 3 12 км 1/1 480 м
[St]
+2.0 -3.5 67 -2 +9 1000.3 998.9
ЮЗ 5 12 км 3/3 480 м
[St]
+2.2 -4.1 63 -3 +2 1000.4 999.0
З 3 12 км 3/3 480 м
[St]
+2.4 -4.2 62 -1 +1 1000.5 999.0
В 3 12 км 1/1 300 м
[St]
+2.1 -3.6 66 -1 -1 1000.7 999.3 +0.4 +3.6
СВ 2 12 км 3/1 300 м
[St Ac trans]
-0.7 -5.2 72 -4 -4 1001.0 999.6
В 4 12 км 4/3 450 м
[St Ac trans]
-1.7 -5.8 74 -7 -7 1000.9 999.4
В 6 12 км 4/3 300 м
[St Ac trans]
-1.1 -6.1 69 -8 -7 1001.0 999.6
В 9 12 км 3/1 300 м
[St Ac trans]
+0.6 -6.2 60 -6 -6 1001.0 999.6 -2.5 +2.2
В 10 12 км 4/3 300 м
[St Ac trans]
+1.1 -4.8 65 -6 -6 1000.8 999.4
В 12 12 км 3/3 450 м
[St]
+1.3 -4.5 65 -7 -7 1000.5 999.0
В 9 12 км 4/4 500 м
[St]
+1.0 -4.5 67 -6 -6 1000.7 999.3
Местоположение метеостанции Carlini Base (Антарктида): широта -62.23 долгота -58.63 высота над уровнем моря 4 м.
В архиве по умолчанию представлена погода на Carlini Base за последнюю неделю. Архивные данные за месяц целиком и за предыдущие месяцы, начиная с января 2011 года, Вы можете получить, выбрав интересующий диапазон дат из раскрывающегося списка и нажав кнопку "Найти!".
*Определитесь, кто Вы:
Внимание! Время в таблицах - всемирное. Для получения местного времени необходимо прибавить поправку, которая равна 0 ч.
Смотрите также архив погоды в соседних городах и на ближайших метеорологических станциях:
Партнеры нашего сайта:      
Пояснения к столбцам:
  • Ветер - указаны скорость ветра в м/с - средняя за 10 мин, порывы в срок и между сроками (в фигурных скобках) и направление, откуда дует ветер: С - северный,
  • СВ - северо-восточный, В - восточный, ЮВ - юго-восточный, Ю - южный, ЮЗ - юго-западный, З - западный, СЗ - северо-западный.
  • Видимость - горизонтальная дальность видимости в метрах или километрах. При видимости от 1 до 10 км при отсутствии осадков обычно наблюдается дымка, при ухудшении видимости до 1 км и менее - туман. В сухую погоду видимость может ухудшаться дымом, пылью или мглою.
  • Явления - указаны атмосферные явления, наблюдавшиеся в срок или в последний час перед сроком; фигурными скобками обозначены явления, наблюдавшиеся между сроками (за 1-3 часа до срока); квадратными скобками обозначены град или гололедные отложения с указанием их диаметра в мм.
  • Облачность - указаны через наклонную черту общая и нижняя облачность в баллах и высота нижней границы облаков в метрах; квадратными скобками обозначены формы облаков: Ci - перистые, Cs - перисто-слоистые, Cc - перисто-кучевые, Ac - высококучевые, As - высокослоистые, Sc - слоисто-кучевые, Ns - слоисто-дождевые, Cu - кучевые, Cb - кучево-дождевые. Подробнее классификацию облаков см. в Атласе облаков (PDF).
  • T - Температура воздуха - температура, измеренная на высоте 2 м над землей.
  • Td - Температура точки росы - температура, при понижении до которой содержащийся в воздухе водяной пар достигнет насыщения.
  • f - Относительная влажность воздуха - влажноcть воздуха, измеренная на высоте 2 м над землей.
  • Te - Эффективная температура - температура, которую ощущает одетый по сезону человек в тени. Характеристика душности погоды. При расчете учитывается влияние влажности воздуха и скорости ветра на теплоощущения человека.
  • Tes - Эффективная температура на солнце - температура, которую ощущает человек, с поправкой на солнечный нагрев. Характеристика знойности погоды. Зависит от высоты солнца над горизонтом, облачности и скорости ветра. Ночью, в пасмурную погоду, а также при ветре 12 м/с и более поправка равна нулю.
  • P - Атмосферное давление - приведенное к уровню моря атмосферное давление.
  • Po - Атмосферное давление - измеренное на уровне метеостанции атмосферное давление.
  • Tmin - Минимальная температура - минимум температуры воздуха на высоте 2 м над землей.
  • Tmax - Максимальная температура - максимум температуры воздуха на высоте 2 м над землей.
  • R - Количество осадков - Количество выпавших осадков за период времени, мм. При наведении курсора мыши на число - период времени, за который выпало указанное количество осадков.
  • R24 - Количество осадков - Количество выпавших осадков за 24 часа, мм.
  • S - Снежный покров - Высота снежного покрова, см. При наведении курсора мыши на число - состояние снежного покрова и степень покрытия местности в баллах.